Location: Gombori
(14.9797°N, 2.9419°W)
Time: 20:59:34
(UTC+00:00)

METEOR 2-17 DEB - Pass Details

Date: 31 May 2022
Orbit: 896 x 935 km, 82.5° (Epoch: 02 July)

Event Time Altitude Azimuth Distance (km) Brightness Sun altitude
Rises 21:57:45 0° 347° (NNW) 3,505 ? -40.9°
Reaches altitude 10° 22:00:16 10° 342° (NNW) 2,563 ? -41.3°
Enters shadow 22:02:24 23° 333° (NNW) 1,815 ? -41.6°
